| time (UTC) | temp F | wind direction | speed MPH | gust MPH | rain 1hr in | rain 24hr in | rain mn in | humidity % | barometer mb |
| 20260507224540 | 71 | 84 | 2.0 | 7.0 | 0.00 | 0.00 | 0.00 | 55 | 1014.3 |
| 20260507223028 | 70 | 171 | 4.0 | 9.0 | 0.00 | 0.00 | 0.00 | 55 | 1014.3 |
| 20260507221527 | 70 | 169 | 2.0 | 8.0 | 0.00 | 0.00 | 0.00 | 55 | 1014.4 |
| 20260507220038 | 71 | 119 | 3.0 | 7.0 | 0.00 | 0.00 | 0.00 | 55 | 1014.5 |
| 20260507214533 | 72 | 198 | 2.0 | 5.0 | 0.00 | 0.00 | 0.00 | 54 | 1014.5 |
| 20260507213022 | 72 | 27 | 0.0 | 1.0 | 0.00 | 0.00 | 0.00 | 52 | 1014.7 |
| 20260507211521 | 72 | 5 | 0.0 | 4.0 | 0.00 | 0.00 | 0.00 | 52 | 1015.0 |
| 20260507210020 | 72 | 15 | 1.0 | 3.0 | 0.00 | 0.00 | 0.00 | 53 | 1015.3 |
| 20260507204519 | 73 | 15 | 0.0 | 5.0 | 0.00 | 0.00 | 0.00 | 51 | 1015.3 |
| 20260507203017 | 73 | 117 | 1.0 | 5.0 | 0.00 | 0.00 | 0.00 | 50 | 1015.1 |
| 20260507201516 | 73 | 102 | 1.0 | 5.0 | 0.00 | 0.00 | 0.00 | 51 | 1015.2 |
| 20260507200017 | 74 | 30 | 4.0 | 7.0 | 0.00 | 0.00 | 0.00 | 49 | 1015.6 |
| 20260507194510 | 73 | 55 | 1.0 | 5.0 | 0.00 | 0.00 | 0.00 | 56 | 1015.9 |
| 20260507193008 | 72 | 134 | 1.0 | 10.0 | 0.00 | 0.00 | 0.00 | 55 | 1016.1 |
| 20260507191505 | 72 | 103 | 1.0 | 4.0 | 0.00 | 0.00 | 0.00 | 53 | 1016.4 |
| 20260507190004 | 71 | 11 | 5.0 | 10.0 | 0.00 | 0.00 | 0.00 | 54 | 1016.5 |
| 20260507184504 | 69 | 26 | 4.0 | 12.0 | 0.00 | 0.00 | 0.00 | 56 | 1016.7 |
| 20260507183058 | 69 | 14 | 6.0 | 12.0 | 0.00 | 0.00 | 0.00 | 56 | 1016.7 |
| 20260507181604 | 69 | 360 | 4.0 | 10.0 | 0.00 | 0.00 | 0.00 | 54 | 1016.9 |
| 20260507180057 | 69 | 85 | 4.0 | 12.0 | 0.00 | 0.00 | 0.00 | 58 | 1017.1 |
| 20260507174601 | 67 | 121 | 3.0 | 11.0 | 0.00 | 0.00 | 0.00 | 58 | 1017.3 |
| 20260507173052 | 67 | 98 | 4.0 | 10.0 | 0.00 | 0.00 | 0.00 | 55 | 1017.5 |
| 20260507171556 | 67 | 355 | 7.0 | 13.0 | 0.00 | 0.00 | 0.00 | 60 | 1018.1 |
| 20260507170051 | 65 | 15 | 2.0 | 9.0 | 0.00 | 0.00 | 0.00 | 58 | 1018.6 |
| 20260507164546 | 65 | 167 | 0.0 | 8.0 | 0.00 | 0.00 | 0.00 | 62 | 1018.9 |
| 20260507163042 | 64 | 5 | 1.0 | 6.0 | 0.00 | 0.00 | 0.00 | 63 | 1019.0 |
| 20260507161540 | 63 | 11 | 4.0 | 12.0 | 0.00 | 0.00 | 0.00 | 64 | 1019.1 |
| 20260507160038 | 64 | 42 | 4.0 | 10.0 | 0.00 | 0.00 | 0.00 | 64 | 1018.9 |
| 20260507154536 | 63 | 93 | 2.0 | 10.0 | 0.00 | 0.02 | 0.00 | 67 | 1019.0 |
| 20260507153033 | 62 | 333 | 7.0 | 11.0 | 0.00 | 0.02 | 0.00 | 65 | 1019.2 |
| 20260507151532 | 62 | 355 | 5.0 | 11.0 | 0.00 | 0.02 | 0.00 | 69 | 1019.4 |
| 20260507150034 | 61 | 42 | 2.0 | 8.0 | 0.00 | 0.02 | 0.00 | 73 | 1019.5 |
| 20260507144527 | 60 | 355 | 6.0 | 10.0 | 0.00 | 0.04 | 0.00 | 72 | 1019.6 |
| 20260507143026 | 59 | 350 | 3.0 | 6.0 | 0.00 | 0.04 | 0.00 | 78 | 1019.5 |
| 20260507141519 | 57 | 319 | 1.0 | 6.0 | 0.00 | 0.04 | 0.00 | 82 | 1019.7 |
| 20260507140018 | 56 | 346 | 4.0 | 8.0 | 0.00 | 0.04 | 0.00 | 83 | 1019.7 |
| 20260507134518 | 55 | 14 | 0.0 | 2.0 | 0.00 | 0.04 | 0.00 | 86 | 1019.9 |
| 20260507133017 | 54 | 14 | 1.0 | 3.0 | 0.00 | 0.04 | 0.00 | 86 | 1020.0 |
| 20260507131523 | 53 | 14 | 1.0 | 4.0 | 0.00 | 0.04 | 0.00 | 88 | 1019.9 |
| 20260507130017 | 53 | 14 | 0.0 | 3.0 | 0.00 | 0.04 | 0.00 | 89 | 1019.9 |
| 20260507124514 | 52 | 14 | 0.0 | 0.0 | 0.00 | 0.04 | 0.00 | 90 | 1019.7 |
| 20260507123013 | 51 | 14 | 0.0 | 0.0 | 0.00 | 0.04 | 0.00 | 90 | 1019.6 |
| 20260507121512 | 51 | 14 | 0.0 | 0.0 | 0.00 | 0.04 | 0.00 | 89 | 1019.5 |
| 20260507120023 | 51 | 14 | 0.0 | 0.0 | 0.00 | 0.04 | 0.00 | 89 | 1019.5 |
| 20260507114509 | 51 | 14 | 0.0 | 1.0 | 0.00 | 0.04 | 0.00 | 89 | 1019.2 |
| 20260507113007 | 51 | 14 | 0.0 | 5.0 | 0.00 | 0.04 | 0.00 | 89 | 1018.9 |
| 20260507111509 | 51 | 18 | 3.0 | 5.0 | 0.00 | 0.04 | 0.00 | 89 | 1019.2 |
| 20260507110006 | 51 | 18 | 2.0 | 4.0 | 0.00 | 0.04 | 0.00 | 89 | 1019.2 |
| 20260507104509 | 51 | 18 | 0.0 | 3.0 | 0.00 | 0.04 | 0.00 | 89 | 1019.1 |
| 20260507103001 | 51 | 18 | 1.0 | 3.0 | 0.00 | 0.04 | 0.00 | 89 | 1018.7 |
| 20260507101606 | 51 | 18 | 1.0 | 2.0 | 0.00 | 0.04 | 0.00 | 88 | 1018.6 |
| 20260507100058 | 51 | 18 | 0.0 | 3.0 | 0.00 | 0.04 | 0.00 | 88 | 1018.4 |
| 20260507094557 | 51 | 18 | 1.0 | 3.0 | 0.00 | 0.04 | 0.00 | 87 | 1018.0 |
| 20260507093057 | 52 | 18 | 0.0 | 0.0 | 0.00 | 0.04 | 0.00 | 86 | 1017.9 |
| 20260507091553 | 52 | 18 | 0.0 | 2.0 | 0.00 | 0.04 | 0.00 | 86 | 1017.4 |
| 20260507090054 | 52 | 18 | 1.0 | 5.0 | 0.00 | 0.04 | 0.00 | 86 | 1017.0 |
| 20260507084551 | 53 | 55 | 1.0 | 4.0 | 0.00 | 0.04 | 0.00 | 85 | 1017.0 |
| 20260507083048 | 53 | 360 | 0.0 | 3.0 | 0.00 | 0.04 | 0.00 | 85 | 1017.3 |
| 20260507081549 | 53 | 360 | 1.0 | 3.0 | 0.00 | 0.04 | 0.00 | 84 | 1017.5 |
| 20260507080048 | 53 | 360 | 1.0 | 4.0 | 0.00 | 0.04 | 0.00 | 83 | 1017.2 |
| 20260507074557 | 54 | 360 | 0.0 | 3.0 | 0.00 | 0.04 | 0.00 | 83 | 1017.1 |
| 20260507073039 | 54 | 360 | 0.0 | 5.0 | 0.00 | 0.04 | 0.00 | 83 | 1017.0 |
| 20260507071536 | 54 | 360 | 3.0 | 6.0 | 0.00 | 0.04 | 0.00 | 82 | 1016.9 |
| 20260507070033 | 55 | 23 | 3.0 | 6.0 | 0.00 | 0.04 | 0.00 | 81 | 1016.6 |
| 20260507064530 | 55 | 32 | 0.0 | 4.0 | 0.00 | 0.04 | 0.00 | 81 | 1016.8 |
| 20260507063029 | 55 | 40 | 2.0 | 5.0 | 0.00 | 0.04 | 0.00 | 81 | 1016.5 |
| 20260507061522 | 55 | 15 | 1.0 | 3.0 | 0.00 | 0.04 | 0.00 | 81 | 1016.6 |
| 20260507060026 | 56 | 84 | 0.0 | 0.0 | 0.00 | 0.04 | 0.00 | 81 | 1016.5 |
| 20260507054521 | 56 | 62 | 0.0 | 1.0 | 0.00 | 0.04 | 0.00 | 80 | 1016.4 |
| 20260507053019 | 56 | 44 | 1.0 | 2.0 | 0.00 | 0.04 | 0.00 | 79 | 1016.3 |
| 20260507051515 | 56 | 360 | 0.0 | 3.0 | 0.00 | 0.04 | 0.00 | 79 | 1016.3 |
| 20260507050024 | 57 | 48 | 0.0 | 4.0 | 0.00 | 0.04 | 0.00 | 78 | 1016.4 |
| 20260507044512 | 57 | 42 | 1.0 | 3.0 | 0.00 | 0.04 | 0.04 | 77 | 1016.3 |
| 20260507043012 | 58 | 59 | 0.0 | 4.0 | 0.00 | 0.04 | 0.04 | 77 | 1016.3 |
| 20260507041511 | 58 | 324 | 0.0 | 5.0 | 0.00 | 0.04 | 0.04 | 76 | 1016.5 |
| 20260507040010 | 58 | 148 | 1.0 | 6.0 | 0.00 | 0.04 | 0.04 | 75 | 1016.5 |
| 20260507034509 | 58 | 74 | 2.0 | 12.0 | 0.00 | 0.04 | 0.04 | 75 | 1016.4 |
| 20260507033017 | 59 | 67 | 3.0 | 11.0 | 0.00 | 0.04 | 0.04 | 74 | 1016.4 |
| 20260507031508 | 59 | 54 | 4.0 | 11.0 | 0.00 | 0.04 | 0.04 | 74 | 1016.3 |
| 20260507030007 | 59 | 63 | 4.0 | 15.0 | 0.00 | 0.04 | 0.04 | 74 | 1016.5 |
| 20260507024504 | 60 | 39 | 6.0 | 11.0 | 0.00 | 0.04 | 0.04 | 73 | 1016.0 |
| 20260507023002 | 61 | 20 | 8.0 | 15.0 | 0.00 | 0.04 | 0.04 | 73 | 1015.6 |
| 20260507021503 | 61 | 21 | 3.0 | 10.0 | 0.00 | 0.04 | 0.04 | 73 | 1015.4 |
| 20260507020001 | 61 | 19 | 5.0 | 11.0 | 0.00 | 0.04 | 0.04 | 73 | 1015.1 |
| 20260507014606 | 62 | 33 | 3.0 | 9.0 | 0.00 | 0.04 | 0.04 | 75 | 1014.7 |
| 20260507013100 | 62 | 43 | 2.0 | 11.0 | 0.00 | 0.04 | 0.04 | 74 | 1014.4 |
| 20260507011559 | 62 | 60 | 2.0 | 8.0 | 0.00 | 0.04 | 0.04 | 73 | 1014.1 |
| 20260507010109 | 62 | 63 | 4.0 | 12.0 | 0.00 | 0.04 | 0.04 | 73 | 1013.8 |
| 20260507004558 | 63 | 54 | 3.0 | 11.0 | 0.00 | 0.04 | 0.04 | 72 | 1013.6 |
| 20260507003057 | 64 | 36 | 6.0 | 12.0 | 0.00 | 0.04 | 0.04 | 71 | 1013.5 |
| 20260507001603 | 64 | 54 | 3.0 | 9.0 | 0.00 | 0.04 | 0.04 | 71 | 1013.3 |
| 20260507000056 | 64 | 15 | 5.0 | 9.0 | 0.00 | 0.04 | 0.04 | 70 | 1013.1 |
| 20260506234556 | 65 | 36 | 4.0 | 10.0 | 0.00 | 0.04 | 0.04 | 69 | 1013.0 |
| 20260506233109 | 65 | 41 | 3.0 | 9.0 | 0.00 | 0.04 | 0.04 | 70 | 1012.8 |
| 20260506231553 | 65 | 5 | 4.0 | 12.0 | 0.00 | 0.04 | 0.04 | 70 | 1012.7 |
| 20260506230052 | 66 | 65 | 3.0 | 7.0 | 0.00 | 0.04 | 0.04 | 69 | 1012.4 |